This is the latest recevied weather packets stored in our database for station/object KD4VIF. If no packets are shown the sender has not sent any weather packets the latest 10 day(s).
| Time | Temp. | Humidity | Pressure | Rain* | Wind** | Luminosity | Snow |
|---|---|---|---|---|---|---|---|
| 1777494198 | 26.11° C | 100% | 1007.5 hPa | 0 mm | 1.79 m/s, 306° | - | - |
| 1777493898 | 26.11° C | 100% | 1007.6 hPa | 0 mm | 2.68 m/s, 289° | - | - |
| 1777493298 | 25.56° C | 100% | 1007.9 hPa | 0 mm | 0.45 m/s, 277° | - | - |
| 1777492998 | 25.56° C | 100% | 1007.9 hPa | 0 mm | 0 m/s | - | - |
| 1777492698 | 25.56° C | 100% | 1008.2 hPa | 0 mm | 0.45 m/s, 220° | - | - |
| 1777491499 | 25.56° C | 100% | 1008.6 hPa | 0 mm | 1.34 m/s, 306° | - | - |
| 1777489698 | 25° C | 100% | 1009 hPa | 0 mm | 1.79 m/s, 309° | - | - |
| 1777489398 | 24.44° C | 100% | 1009.1 hPa | 0 mm | 2.24 m/s, 303° | - | - |
| 1777489098 | 24.44° C | 100% | 1009.3 hPa | 0 mm | 0.45 m/s, 246° | - | - |
| 1777488798 | 24.44° C | 100% | 1009.3 hPa | 0 mm | 2.24 m/s, 285° | - | - |
| 1777488197 | 23.89° C | 100% | 1009.2 hPa | 0 mm | 0.89 m/s, 278° | - | - |
| 1777487599 | 23.89° C | 100% | 1009.4 hPa | 0 mm | 0 m/s | - | - |
| 1777486698 | 23.89° C | 100% | 1009.6 hPa | 0 mm | 0 m/s | - | - |
| 1777486097 | 23.33° C | 100% | 1009.7 hPa | 0 mm | 0.89 m/s, 284° | - | - |
| 1777485798 | 23.33° C | 100% | 1009.9 hPa | 0 mm | 0.45 m/s, 296° | - | - |
| 1777485498 | 22.78° C | 100% | 1009.9 hPa | 0 mm | 0.89 m/s, 223° | - | - |
| 1777485198 | 22.22° C | 100% | 1009.9 hPa | 0 mm | 0.45 m/s, 331° | - | - |
| 1777484898 | 22.22° C | 100% | 1010 hPa | 0 mm | 0 m/s | - | - |
| 1777484298 | 22.22° C | 100% | 1010.3 hPa | 0 mm | 0.45 m/s, 133° | - | - |
| 1777482498 | 20.56° C | 100% | 1010.8 hPa | 0 mm | 0.45 m/s, 53° | - | - |
| 1777481599 | 20.56° C | 100% | 1011 hPa | 0 mm | 0.89 m/s, 234° | - | - |
| 1777480398 | 19.44° C | 100% | 1011.7 hPa | 0 mm | 0.45 m/s, 285° | - | - |
| 1777480098 | 19.44° C | 100% | 1011.9 hPa | 0 mm | 0 m/s | - | - |
| 1777477097 | 18.89° C | 100% | 1012.5 hPa | 0 mm | 0 m/s | - | - |
| 1777475297 | 19.44° C | 100% | 1013 hPa | 0 mm | 0 m/s | - | - |
* Rain latest hour (hover to see other rain measurements)
** Current wind speed in m/s (hover to see current wind gust speed)